Weather History for KSRQ - July, 2013

Change the Weather History Date:

Tuesday, July 23, 2013

  Actual Average Record
Temperature  
Mean Temperature 85 °F 82 °F  
Max Temperature 89 °F 90 °F 101 °F (1971)
Min Temperature 81 °F 75 °F 66 °F (1971)
Degree Days  
Heating Degree Days 0 0  
Month to date heating degree days 0 0  
Since 1 June heating degree days 0 0  
Since 1 July heating degree days 0 0  
Cooling Degree Days 20 18  
Month to date cooling degree days 390 398  
Year to date cooling degree days 1771 1621  
Since 1 June cooling degree days 903 870  
Growing Degree Days 34 (Base 50)    
Moisture  
Dew Point 74 °F    
Average Humidity 71    
Maximum Humidity 79    
Minimum Humidity 61    
Precipitation  
Precipitation 0.00 in 0.24 in 2.37 in (1963)
Month to date precipitation 9.85 5.88  
Year to date precipitation 26.73 27.09  
Sea Level Pressure  
Sea Level Pressure 30.05 in    
Wind  
Wind Speed 8 mph (West)    
Max Wind Speed 14 mph    
Max Gust Speed 17 mph    
Visibility 10 miles    
Events      
T = Trace of Precipitation, MM = Missing Value Source: NWS Daily Summary

Daily Weather History Graph

Daily Weather History Graph

Search for Another Location

Airport or City:

Trip Planner

Search our weather history database for the weather conditions in past years. The results will help you decide how hot, cold, wet, or windy it might be!

Date:

Astronomy

Jul. 23, 2013 Rise Set
Actual Time 6:49 AM EDT 8:24 PM EDT
Civil Twilight 6:23 AM EDT 8:49 PM EDT
Nautical Twilight 5:52 AM EDT 9:20 PM EDT
Astronomical Twilight 5:20 AM EDT 9:52 PM EDT
Moon 9:05 PM EDT (7/23) 7:45 AM EDT (7/23)
Length of Visible Light 14h 26m
Length of Day
13h 34m
Full, 99% of the Moon is Illuminated
Jul 23
Full
Jul 29
Last Quarter
Aug 6
New
Aug 14
First Quarter
Aug 20
Full

Hourly Weather History & Observations

Time (EDT) Temp. Heat Index Dew Point Humidity Pressure Visibility Wind Dir Wind Speed Gust Speed Precip Events Conditions
12:03 AM 82.4 °F 89.5 °F 75.2 °F 79% 30.10 in 10.0 mi West 6.9 mph - N/A   Mostly Cloudy
12:23 AM 82.4 °F 89.5 °F 75.2 °F 79% 30.10 in 10.0 mi West 8.1 mph - N/A   Scattered Clouds
12:53 AM 82.9 °F 90.8 °F 75.9 °F 79% 30.09 in 10.0 mi WSW 6.9 mph - N/A   Partly Cloudy
1:53 AM 82.0 °F 88.6 °F 75.0 °F 79% 30.08 in 10.0 mi West 5.8 mph - N/A   Partly Cloudy
2:53 AM 82.0 °F 88.6 °F 75.0 °F 79% 30.07 in 10.0 mi West 4.6 mph - N/A   Clear
3:53 AM 82.0 °F 87.9 °F 73.9 °F 76% 30.06 in 10.0 mi West 6.9 mph - N/A   Scattered Clouds
4:53 AM 82.0 °F 87.9 °F 73.9 °F 76% 30.05 in 10.0 mi WSW 4.6 mph - N/A   Scattered Clouds
5:53 AM 82.0 °F 87.9 °F 73.9 °F 76% 30.04 in 10.0 mi WSW 6.9 mph - N/A   Partly Cloudy
6:53 AM 81.0 °F 86.2 °F 73.9 °F 79% 30.05 in 10.0 mi SW 4.6 mph - N/A   Clear
7:53 AM 82.9 °F 89.4 °F 73.9 °F 74% 30.08 in 10.0 mi SW 5.8 mph - N/A   Clear
8:53 AM 84.0 °F 91.2 °F 73.9 °F 72% 30.09 in 10.0 mi WSW 6.9 mph - N/A   Mostly Cloudy
9:53 AM 86.0 °F 93.0 °F 73.0 °F 65% 30.10 in 10.0 mi SW 8.1 mph - N/A   Clear
10:53 AM 87.1 °F 94.5 °F 73.0 °F 63% 30.09 in 10.0 mi WSW 10.4 mph - N/A   Partly Cloudy
11:53 AM 87.1 °F 94.5 °F 73.0 °F 63% 30.09 in 10.0 mi WSW 10.4 mph - N/A   Partly Cloudy
12:53 PM 87.1 °F 94.5 °F 73.0 °F 63% 30.08 in 10.0 mi SW 10.4 mph - N/A   Clear
1:53 PM 87.1 °F 95.4 °F 73.9 °F 65% 30.07 in 10.0 mi SW 9.2 mph - N/A   Partly Cloudy
2:53 PM 87.1 °F 95.4 °F 73.9 °F 65% 30.06 in 10.0 mi West 10.4 mph - N/A   Partly Cloudy
3:53 PM 88.0 °F 97.5 °F 75.0 °F 65% 30.03 in 10.0 mi West 12.7 mph - N/A   Partly Cloudy
4:53 PM 86.0 °F 92.2 °F 72.0 °F 63% 30.02 in 10.0 mi West 10.4 mph - N/A   Clear
5:53 PM 86.0 °F 93.0 °F 73.0 °F 65% 30.02 in 10.0 mi West 9.2 mph - N/A   Partly Cloudy
6:53 PM 84.9 °F 91.4 °F 73.0 °F 67% 29.99 in 10.0 mi West 6.9 mph - N/A   Clear
7:53 PM 84.0 °F 89.6 °F 72.0 °F 67% 29.99 in 10.0 mi WNW 8.1 mph - N/A   Clear
8:53 PM 82.9 °F 88.8 °F 73.0 °F 72% 29.99 in 10.0 mi West 10.4 mph - N/A   Scattered Clouds
9:53 PM 82.9 °F 88.8 °F 73.0 °F 72% 30.00 in 10.0 mi West 8.1 mph - N/A   Partly Cloudy
10:53 PM 82.9 °F 88.8 °F 73.0 °F 72% 30.01 in 10.0 mi West 10.4 mph - N/A   Partly Cloudy
11:53 PM 82.9 °F 88.8 °F 73.0 °F 72% 30.02 in 10.0 mi WNW 9.2 mph - N/A   Partly Cloudy